SCP
1 1 1 1 1 1 1 0 0 0 0 0 0 0 0 0 0 0 1 1 1 1 1 2 2 1 1 2 2 2 2 2 2 2 2 2 2 2 2 2 2 2 2
1 1 1 1 1 1 1 1 0 0 0 0 0 0 0 0 0 0 1 1 1 1 1 2 2 2 2 2 2 2 2 2 2 2 2 2 2 2 2 2 2 2 2
2 2 2 2 2 2 1 1 1 1 1 1 1 0 0 0 0 0 0 1 1 1 1 1 1 1 1 1 1 2 2 2 2 2 2 2 2 2 2 2 2 2 2
2 3 3 3 2 2 2 1 1 1 1 1 1 1 0 0 0 0 0 0 0 0 0 1 1 1 1 1 1 1 1 1 2 2 2 2 2 2 2 2 2 2 2
3 3 3 3 3 2 2 2 1 1 1 1 1 0 0 0 0 0 0 0 0 0 0 0 0 0 0 0 0 0 0 1 1 1 1 1 1 2 2 2 1 1 2
3 3 3 3 3 2 2 2 1 1 1 1 0 0 0 0 0 0 0 0 0 0 0 0 0 0 0 0 0 0 0 0 0 0 0 1 1 1 1 1 1 1 1
3 3 3 3 2 2 2 1 1 1 0 0 0 0 0 0 0 0 0 0 0 0 0 0 0 0 0 0 0 0 0 0 0 0 0 0 0 1 1 1 1 1 1
3 3 2 2 2 2 2 1 0 0 0 0 0 0 0 0 0 0 0 0 0 0 0 0 0 0 0 0 0 0 0 0 0 0 0 0 0 1 1 1 1 1 1
1 1 1 1 1 1 1 0 0 0 0 0 0 0 0 0 0 0 0 0 0 0 0 0 0 0 0 0 0 0 0 0 0 0 0 0 0 0 1 1 1 1 1
0 0 0 0 0 0 0 0 0 0 0 0 0 0 0 0 0 0 0 0 0 0 0 0 0 0 0 0 0 0 0 0 0 0 0 0 0 0 0 0 0 0 1
0 0 0 0 0 0 0 0 0 0 0 0 0 0 0 0 0 0 0 0 0 0 0 0 0 0 0 0 0 0 0 0 0 0 0 0 0 0 0 0 0 0 0
0 0 0 0 0 0 0 0 0 0 0 0 0 0 0 0 0 0 0 0 0 0 0 0 0 0 0 0 0 0 0 0 0 0 0 0 0 0 0 0 0 0 0
0 0 0 0 0 0 0 0 0 0 0 0 0 0 0 0 0 0 0 0 0 0 0 0 0 0 0 0 0 0 0 0 0 0 0 0 0 0 0 0 0 0 0
0 0 0 0 0 0 0 0 0 0 0 0 0 0 0 0 0 0 0 0 0 0 0 0 0 0 0 0 0 0 0 0 0 0 0 0 0 0 0 0 0 0 0
0 0 0 0 0 0 0 0 0 0 0 0 0 0 0 0 0 0 0 0 0 0 0 0 0 0 0 0 0 0 0 0 0 0 0 0 0 0 0 0 0 0 0
0 0 0 0 0 0 0 0 0 0 0 0 0 0 0 0 0 0 0 0 0 0 0 0 0 0 0 0 0 0 0 0 0 0 0 0 0 0 0 0 0 0 0
0 0 0 0 0 0 0 0 0 0 0 0 0 0 0 0 0 0 0 0 0 0 0 0 0 0 0 0 0 0 0 0 0 0 0 0 0 0 0 0 0 0 0
0 0 0 0 0 0 0 0 0 0 0 0 0 0 0 0 0 0 0 0 0 0 0 0 0 0 0 0 0 0 0 0 0 0 0 0 0 0 0 0 0 0 0
0 0 0 0 0 0 0 0 0 0 0 0 0 0 0 0 0 0 0 0 0 0 0 0 0 0 0 0 0 0 0 0 0 0 0 0 0 0 0 0 0 0 0
0 0 0 0 0 0 0 0 0 0 0 0 0 0 0 0 0 0 0 0 0 0 0 0 0 0 0 0 0 0 0 0 0 0 0 0 0 0 0 0 0 0 0
0 0 0 0 0 0 0 0 0 0 0 0 0 0 0 0 0 0 0 0 0 0 0 0 0 0 0 0 0 0 0 0 0 0 0 0 0 0 0 0 0 0 0
0 0 0 0 0 0 0 0 0 0 0 0 0 0 0 0 0 0 0 0 0 0 0 0 0 0 0 0 0 0 0 0 0 0 0 0 0 0 0 0 0 0 0
0 0 0 0 0 0 0 0 0 0 0 0 0 0 0 0 0 0 0 0 0 0 0 0 0 0 0 0 0 0 0 0 0 0 0 0 0 0 0 0 0 0 0
0 0 0 0 0 0 0 0 0 0 0 0 0 0 0 0 0 0 0 0 0 0 0 0 0 0 0 0 0 0 0 0 0 0 0 0 0 0 0 0 0 0 0
0 0 0 0 0 0 0 0 0 0 0 0 0 0 0 0 0 0 0 0 0 0 0 0 0 0 0 0 0 0 0 0 0 0 0 0 0 0 0 0 0 0 0
0 0 0 0 0 0 0 0 0 0 0 0 0 0 0 0 0 0 0 0 0 0 0 0 0 0 0 0 0 0 0 0 0 0 0 0 0 0 0 0 0 0 0
Wind_Speed
6 5 4 3 4 3 5 4 3 3 3 4 2 1 1 3 2 2 6 10 8 6 4 3 1 0 1 2 3 5 6 7 8 8 9 9 9 9 9 9 9 8 8
5 5 5 4 4 3 2 3 3 3 2 2 2 2 1 2 4 3 2 8 12 10 9 7 5 4 2 3 3 4 5 5 6 6 7 9 10 10 10 10 10 10 9
5 4 4 4 3 3 3 3 4 3 3 3 3 2 2 3 3 3 2 2 4 11 11 10 9 8 7 6 4 3 3 3 4 6 7 8 9 11 12 12 12 11 11
5 4 3 3 3 3 3 3 2 3 2 1 2 2 2 1 2 2 1 1 2 1 8 11 10 10 9 8 7 7 6 5 4 4 6 7 9 9 10 11 12 12 12
4 3 3 3 4 3 3 3 3 2 3 2 1 1 1 2 1 1 1 2 2 1 1 7 8 9 9 9 8 8 7 7 7 7 7 6 6 6 7 9 10 10 11
3 4 4 5 4 4 4 4 5 4 2 1 1 1 2 2 2 0 2 1 1 0 1 2 1 5 6 5 6 7 7 7 8 8 9 8 8 8 7 9 10 10 11
3 3 4 5 4 4 5 5 4 3 2 0 2 3 2 2 2 2 3 2 1 1 2 2 4 4 2 4 2 3 7 8 9 9 10 11 10 10 10 10 11 12 13
3 3 5 5 4 4 5 4 3 2 2 0 2 4 4 5 5 4 3 4 3 3 4 4 4 5 6 6 1 2 7 9 11 12 13 13 13 13 13 13 14 14 14
3 4 4 5 4 4 4 3 3 2 2 2 1 3 5 5 2 5 5 5 5 5 6 6 8 7 8 7 8 7 6 9 13 14 15 16 16 16 16 16 17 17 17
6 5 5 6 5 4 5 4 3 2 2 3 3 1 3 5 6 4 5 6 7 7 8 7 9 9 9 9 8 10 9 10 13 16 17 18 18 18 19 19 19 20 20
8 7 6 6 6 5 5 5 4 3 1 0 1 1 1 2 5 6 7 5 6 7 7 7 8 9 9 9 9 9 5 9 14 16 18 18 19 20 21 21 22 22 22
7 8 7 6 6 6 6 5 5 4 3 3 2 2 3 4 5 6 8 9 9 8 8 7 8 9 8 9 11 7 8 12 16 17 17 18 19 20 21 22 23 23 23
6 7 6 6 5 6 6 5 4 4 3 1 2 3 4 5 6 7 9 10 11 10 10 8 7 7 8 8 9 6 11 15 17 17 18 19 20 21 22 22 23 24 24
7 7 7 6 6 5 5 4 3 3 1 1 2 4 5 6 6 7 9 10 12 11 11 10 8 8 8 8 8 7 14 16 17 18 19 20 21 22 23 24 24 24 24
8 8 7 6 6 5 4 3 2 1 0 2 3 4 6 6 6 7 8 9 11 13 12 11 9 9 9 10 11 13 15 16 18 19 21 22 23 24 24 24 25 24 24
8 8 7 6 6 5 4 1 2 2 2 2 4 5 6 7 7 7 8 8 9 11 13 10 10 11 11 12 15 16 16 19 21 21 21 21 22 23 23 24 25 25 25
8 8 7 6 5 4 3 2 3 2 3 4 5 6 7 7 7 8 8 8 9 10 12 12 11 11 14 15 14 15 15 15 13 16 17 19 20 22 23 24 24 24 23
8 7 6 5 4 4 2 2 2 3 4 5 6 7 8 7 9 9 8 9 9 10 12 14 12 12 14 15 15 15 14 12 13 15 16 19 22 22 23 23 23 22 20
7 6 5 4 3 2 2 2 3 4 5 6 7 8 9 9 10 9 10 10 9 9 10 12 13 12 12 13 14 14 14 12 14 13 15 18 21 21 20 20 19 18 17
6 5 4 3 2 1 2 3 5 5 6 7 8 8 9 9 10 11 10 10 10 11 11 11 12 12 12 13 12 11 11 11 11 12 15 15 14 16 18 19 19 20 18
4 3 3 2 2 2 6 8 7 7 7 8 9 8 8 9 10 10 10 12 12 11 11 10 11 11 11 11 10 9 11 11 11 11 11 11 10 10 11 14 19 21 19
3 3 3 3 3 6 8 8 10 10 9 9 9 9 9 9 8 10 13 14 16 15 13 11 10 11 13 12 10 9 10 10 9 7 9 12 11 10 10 9 9 11 15
3 3 3 4 4 8 6 7 9 11 10 8 9 9 8 8 10 9 12 16 16 16 16 12 12 12 13 12 11 11 10 11 11 10 10 11 10 10 8 7 8 10 12
3 3 3 4 3 6 5 6 12 11 8 8 9 9 10 10 8 11 14 15 14 13 13 11 11 12 12 12 11 11 11 11 11 10 8 8 9 9 9 8 7 9 11
3 3 3 4 3 4 5 6 12 10 7 9 10 10 10 10 8 11 14 14 14 13 11 12 14 15 16 16 13 9 8 7 8 9 6 5 7 9 10 7 3 6 9
3 3 3 3 4 3 4 4 10 8 8 8 8 9 7 6 11 13 13 12 13 12 13 13 12 11 10 8 9 8 7 7 6 5 4 4 5 6 6 6 5 3 5
Wind_Direction
207 198 197 197 215 189 185 202 200 159 182 177 172 132 74 55 33 14 100 76 68 65 62 54 45 338 243 245 248 246 242 241 239 233 229 227 228 229 231 231 230 228 229
204 202 193 190 207 202 198 191 168 171 188 146 134 94 341 56 57 343 51 101 77 63 57 52 46 34 1 308 289 271 258 251 245 238 232 228 225 224 225 225 225 225 224
197 201 200 187 185 167 156 176 153 161 153 145 112 79 48 13 41 19 350 337 109 83 63 56 52 49 41 26 5 341 315 288 264 251 247 243 239 234 231 228 226 224 221
199 197 182 166 144 149 154 145 159 148 122 113 84 38 23 22 22 352 316 337 349 89 88 65 57 53 47 38 32 26 19 9 351 316 283 266 254 246 240 234 229 226 223
182 169 146 124 130 127 124 120 98 98 101 80 93 52 341 328 311 353 14 39 62 347 67 101 84 63 50 40 32 24 16 8 1 351 334 318 302 285 264 245 236 232 227
127 133 124 122 122 119 112 104 103 86 84 73 323 8 318 307 282 276 242 154 146 297 351 3 232 109 87 51 26 10 358 349 342 335 328 324 321 317 305 274 252 241 236
110 124 126 129 133 128 122 118 112 117 113 116 239 231 216 239 260 235 251 256 180 257 276 298 299 320 266 169 156 353 332 323 317 313 309 308 310 307 302 293 274 257 249
122 132 145 139 135 127 127 131 139 168 114 38 285 275 250 209 206 218 225 230 256 267 276 277 301 283 292 294 160 277 293 301 300 297 295 296 297 297 293 287 281 275 264
108 119 129 123 124 121 119 120 135 147 148 135 324 288 284 287 217 188 221 241 248 276 284 289 276 281 281 284 286 262 283 298 295 293 292 292 291 290 288 285 282 276 270
108 101 106 107 107 107 111 114 97 122 161 158 139 8 331 339 303 279 210 221 236 257 272 283 287 284 277 274 277 280 272 282 292 293 291 291 289 287 285 283 280 277 272
96 93 93 98 99 98 97 95 99 94 122 93 140 186 222 239 261 282 293 288 266 261 266 270 279 284 285 280 280 284 314 300 294 290 290 290 289 288 286 283 279 275 272
98 100 102 103 104 106 106 105 108 97 67 51 358 318 296 297 297 298 292 288 287 286 287 286 281 279 283 287 285 312 311 296 289 288 288 288 287 286 284 281 278 275 273
108 107 109 108 107 105 105 105 99 89 94 84 309 310 307 301 303 299 295 296 297 293 287 274 272 282 288 292 295 315 292 286 281 280 281 283 283 283 282 280 278 276 275
111 111 107 106 105 109 109 108 117 116 103 278 297 311 298 294 306 301 300 302 297 294 290 295 305 297 300 300 300 303 286 280 276 274 275 277 278 278 277 275 274 273 273
112 109 108 107 102 99 102 121 104 107 157 294 305 304 304 311 299 301 298 295 296 297 297 306 300 305 304 296 299 293 290 287 285 282 277 275 274 273 273 272 271 269 268
107 110 107 105 106 111 122 145 134 69 334 339 331 327 315 311 317 299 293 293 290 291 294 300 299 298 301 295 293 291 289 288 280 273 271 270 270 270 270 269 267 266 265
108 109 111 115 116 111 94 60 29 5 333 334 324 321 315 316 307 309 299 293 292 294 294 297 300 300 298 293 293 291 289 289 287 279 277 277 275 271 269 268 266 265 265
105 106 107 103 98 88 65 26 2 348 334 330 326 320 315 313 309 297 301 301 298 297 294 297 298 298 296 295 292 292 292 291 290 289 280 275 273 271 268 265 264 262 262
98 96 99 100 92 79 57 5 343 333 328 324 321 317 314 311 305 307 305 299 298 296 294 294 297 299 297 297 299 296 296 296 292 288 277 266 264 262 260 258 257 255 253
94 91 86 78 64 28 357 349 336 329 323 319 315 309 305 307 309 311 304 302 302 302 299 295 294 297 298 299 299 300 299 295 293 294 290 283 271 258 254 251 250 251 249
90 84 74 65 18 13 26 0 336 324 323 316 311 307 305 307 297 297 304 310 309 303 300 297 297 297 297 300 301 301 296 297 294 290 291 292 288 279 268 250 243 244 243
78 63 42 24 21 48 51 16 339 325 317 311 312 311 306 291 298 291 284 291 296 294 297 296 293 292 294 298 301 297 297 297 296 296 297 295 293 288 283 276 266 245 233
73 54 32 28 55 82 52 8 343 313 308 314 312 310 310 317 310 314 314 305 294 286 281 284 286 289 295 297 297 296 295 298 298 300 296 292 296 295 292 284 263 247 237
51 39 26 23 31 89 57 356 329 300 307 314 311 309 311 313 331 336 318 306 302 300 296 292 289 293 294 295 294 293 294 295 294 295 295 292 302 303 295 286 255 240 243
36 15 30 8 360 89 70 358 328 314 318 317 314 314 313 314 346 329 312 304 302 302 296 285 281 279 277 276 276 282 288 294 302 308 321 309 308 311 305 299 266 227 241
27 359 33 4 349 17 84 357 328 319 323 316 311 307 302 322 325 314 311 304 302 310 313 308 300 295 293 291 271 271 285 293 299 301 330 316 301 312 307 312 316 290 249